Regional Weather Roundup
Issued by NWS Upton, NY

Current Version | Previous Version | Graphics & Text | Print | Product List | Glossary Off
Versions: 1 2 3 4 5 6 7 8 9 10 11 12 13 14 15 16 17 18 19 20 21 22 23 24 25 26 27 28 29 30 31 32 33 34 35 36 37 38 39 40 41 42 43 44 45 46 47 48 49 50

000
ASUS41 KOKX 041804
RWROKX

REGIONAL WEATHER ROUNDUP
NATIONAL WEATHER SERVICE NEW YORK NY
200 PM EDT TUE AUG 04 2015

NOTE: "FAIR" INDICATES FEW OR NO CLOUDS BELOW 12,000 FEET WITH NO
SIGNIFICANT WEATHER AND/OR OBSTRUCTIONS TO VISIBILITY.

NYZ071-072-176-178-NJZ106-104-041900-
NEW YORK CITY METRO AREA


CITY           SKY/WX    TMP DP  RH WIND       PRES   REMARKS
CENTRAL PARK   SUNNY     88  61  40 W8        29.87S
LAGUARDIA APRT MOSUNNY   88  60  38 W14G25    29.83F
KENNEDY INTL   MOSUNNY   90  64  42 SW20      29.85F HX  91
NEWARK/LIBERTY MOSUNNY   89  62  40 W17       29.84S
BRNX BOT. GARD   N/A     86  59  39 SW15      29.85F
TETERBORO      MOSUNNY   91  58  32 W13G24    29.83R HX  90
$$

NYZ177-179-078>081-041900-
LONG ISLAND NEW YORK

CITY           SKY/WX    TMP DP  RH WIND       PRES   REMARKS
FARMINGDALE    SUNNY     89  64  43 W13G22    29.85S HX  90
ISLIP          MOSUNNY   86  67  52 S18       29.83S
SHIRLEY        SUNNY     87  67  51 SW15G25   29.86R HX  90
WESTHAMPTON    SUNNY     87  67  51 SW15G25   29.87S HX  90
MONTAUK POINT    N/A     82  74  76 S8        29.87S
$$

NYZ052-065-067-041900-
HUDSON VALLEY

CITY           SKY/WX    TMP DP  RH WIND       PRES   REMARKS
WHITE PLAINS   MOSUNNY   86  58  38 W8G18     29.84S
NEWBURGH       MOSUNNY   84  68  58 W16       29.84F
MONTGOMERY     MOSUNNY   87  66  49 SW10      29.82F
POUGHKEEPSIE   MOSUNNY   90  59  35 SW13G20   29.80F
ALBANY         PTSUNNY   79  65  62 NW8       29.82S
$$

NJZ001-105-106-008-010-013-015-019>022-104-041900-
NEW JERSEY

CITY           SKY/WX    TMP DP  RH WIND       PRES   REMARKS
NEWARK/LIBERTY MOSUNNY   89  62  40 W17       29.84S
TETERBORO      MOSUNNY   91  58  32 W13G24    29.83R HX  90
CALDWELL       MOSUNNY   88  57  34 W10G20    29.85S
MORRISTOWN     MOSUNNY   90  57  33 W18G26    29.86S
SOMERVILLE     SUNNY     87  60  40 W9G20     29.85S
SUSSEX         MOSUNNY   86  61  42 SW8G17    29.85S
ANDOVER          N/A     81  64  56 SW9G20    29.88R
TRENTON        SUNNY     88  60  38 W18G29    29.87S
MILLVILLE      SUNNY     90  65  43 W17G23    29.90S HX  92
ATLANTIC CITY  SUNNY     92  64  39 W16G25    29.88S HX  93
WRIGHTSTOWN    SUNNY     90  64  42 W16G23    29.85S HX  92
TOMS RIVER       N/A     91  63  38 W14G23    29.86F HX  92
BELMAR         MOSUNNY   91  64  40 W16       29.87S HX  93
$$

PAZ047>061-062-071-041900-
EASTERN PENNSYLVANIA

CITY           SKY/WX    TMP DP  RH WIND       PRES   REMARKS
PHILADELPHIA   MOSUNNY   90  61  37 W18G24    29.89S HX  90
ALLENTOWN      MOSUNNY   84  62  47 W14       29.89R
SCRANTON       SUNNY     83  57  41 W17G25    29.90R
$$

CTZ002-004>006-009-010-012-RIZ004-006-007-MAZ004-011-015-041900-
SOUTHERN NEW ENGLAND
 IN CT

CITY           SKY/WX    TMP DP  RH WIND       PRES   REMARKS
BRADLEY INTL   MOSUNNY   88  64  44 SW16      29.78F
HARTFORD       MOSUNNY   88  63  43 SW9G16    29.79F
DANBURY        SUNNY     85  61  44 SW14G20   29.84F
WTRBRY/OXFORD  MOSUNNY   82  63  51 W7        29.87F
BRIDGEPORT     SUNNY     86  68  54 SW12      29.83F
MERIDEN        MOSUNNY   88  63  43 SW9G18    29.82F
NEW HAVEN      SUNNY     85  67  54 S10       29.83F
CHESTER        FAIR      82  66  57 SW12      29.86S
GROTON         SUNNY     79  66  64 S7        29.84S
WILLIMANTIC    SUNNY     86  64  47 SW9G25    29.82F

 IN RI

CITY           SKY/WX    TMP DP  RH WIND       PRES   REMARKS
PROVIDENCE     SUNNY     85  66  53 SW15      29.83F
BLOCK ISLAND     N/A     79  73  83 SW16G22   29.87F
WESTERLY       SUNNY     80  69  69 SE8       29.85F

 IN MA

CITY           SKY/WX    TMP DP  RH WIND       PRES   REMARKS
BOSTON         MOSUNNY   87  65  47 S13       29.79F
WORCESTER      PTSUNNY   81  63  54 S14       29.84F
WESTFIELD      MOSUNNY   86  64  47 S14G21    29.78F
PROVINCETOWN   SUNNY     82  64  54 SW13      29.83F
NANTUCKET      CLOUDY    79  73  82 S16       29.88S
$$

ANZ330-335-338-340-345-350-353-355-041900-
COASTAL MARINE OBSERVATIONS


STATION/POSITION TIME  SKY/WX   TEMP    WIND        PRES    VSBY  WAVE
                                AIR SEA DIR/SP/G                  HT/PER
                 (UTC)          (F)     (DEG/KT/KT) (MB)    (MI)  (FT/S)
NY HARB ENTRANCE 1650            78 76  240/  6/  6 1010.8          5/ 8
4S FIRE IS       NOT AVBL
20S FIRE ISLAND  1650            76 74  220/ 10/ 12 1011.0          6/ 7
GREAT SOUTH BAY  1700            78 81  240/ 10/ 16   N/A
23SW MTP         1750            76 74  230/ 12/ 14 1011.2          6/ 8
HUDSON CANYON    NOT AVBL
KINGS POINT      1700            83 71  280/ 11/ 15 1009.9
EXECUTION ROCKS  1700            80     210/  6/ 10   N/A
CENTRAL LI SOUND NOT AVBL
EASTERN LI SOUND 1700            72 71  130/  6/  6   N/A
ROBBINS REEF     1700            83     250/ 17/ 23 1009.8
$$


>>>>>>>>>>>>>>>>>>>>>>>>>>>> KEY <<<<<<<<<<<<<<<<<<<<<<<<<<<
>                                                          <
>     SKY/WX - SKY CONDITION/PRESENT WEATHER               <
>     TMP    - TEMPERATURE IN FAHRENHEIT                   <
>     DP     - DEWPOINT IN FAHRENHEIT                      <
>     RH     - RELATIVE HUMIDITY IN PERCENT                <
>     WIND   - DIRECTION AND SPEED IN MPH                  <
>     PRES   - MEAN SEA LEVEL PRESSURE IN INCHES OF HG     <
>     WCI    - WIND CHILL INDEX                            <
>     VSB    - VISIBILITY IN MILES                         <
>     HX     - HEAT INDEX                                  <
>     TC     - TEMPERATURE IN CELSIUS                      <
>     VRB    - VARIABLE WIND DIRECTION                     <
>                                                          <
>>>>>>>>>>>>>>>>>>>>>>>>>>>> KEY <<<<<<<<<<<<<<<<<<<<<<<<<<<




USA.gov is the U.S. government's official web portal to all federal, state and local government web resources and services.